EW9116 Weather Reports


time (UTC)temp
C
wind
direction
speed
KPH
gust
KPH
rain 1hr
cm
rain 24hr
cm
rain mn
cm
humidity
%
barometer
mb
20260502194201 16 0 0.0 0.0 0.00 0.00 0.00 39 1011.6
20260502193701 16 0 0.0 0.0 0.00 0.00 0.00 41 1011.7
20260502193226 17 0 0.0 0.0 0.00 0.00 0.00 38 1011.8
20260502192201 16 0 0.0 0.0 0.00 0.00 0.00 40 1011.9
20260502191701 16 0 0.0 0.0 0.00 0.00 0.00 39 1012.1
20260502191201 16 0 0.0 0.0 0.00 0.00 0.00 38 1012.2
20260502190701 16 0 0.0 0.0 0.00 0.00 0.00 42 1012.3
20260502190202 16 0 0.0 0.0 0.00 0.00 0.00 42 1012.4
20260502185702 16 0 0.0 0.0 0.00 0.00 0.00 40 1012.4
20260502185202 15 0 0.0 0.0 0.00 0.00 0.00 40 1012.5
20260502184658 16 0 0.0 0.0 0.00 0.00 0.00 38 1012.7
20260502184158 16 0 0.0 0.0 0.00 0.00 0.00 39 1012.9
20260502183658 16 0 0.0 0.0 0.00 0.00 0.00 41 1012.9
20260502183158 16 0 0.0 0.0 0.00 0.00 0.00 39 1013.1
20260502182700 15 0 0.0 0.0 0.00 0.00 0.00 39 1013.1
20260502182158 15 0 0.0 0.0 0.00 0.00 0.00 39 1013.4
20260502181658 15 0 0.0 0.0 0.00 0.00 0.00 41 1013.3
20260502181158 15 0 0.0 0.0 0.00 0.00 0.00 39 1013.4
20260502180658 15 0 0.0 0.0 0.00 0.00 0.00 39 1013.5
20260502180157 15 0 0.0 0.0 0.00 0.00 0.00 40 1013.6
20260502170154 14 0 0.0 0.0 0.00 0.00 0.00 41 1014.3
20260502164155 13 0 0.0 0.0 0.00 0.00 0.00 43 1014.7
20260502163949 13 0 0.0 0.0 0.00 0.00 0.00 42 1014.7
20260502163153 13 0 0.0 0.0 0.00 0.00 0.00 41 1014.9
20260502162653 13 0 0.0 0.0 0.00 0.00 0.00 41 1015.0
20260502162155 13 0 0.0 0.0 0.00 0.00 0.00 45 1015.1
20260502161655 12 0 0.0 0.0 0.00 0.00 0.00 41 1015.1
20260502161451 12 0 0.0 0.0 0.00 0.00 0.00 43 1015.2
20260502160655 12 0 0.0 0.0 0.00 0.00 0.00 41 1015.3
20260502160154 12 0 0.0 0.0 0.00 0.00 0.00 42 1015.3
20260502151151 11 0 0.0 0.0 0.00 0.00 0.00 49 1016.1
20260502150653 11 0 0.0 0.0 0.00 0.00 0.00 49 1016.3
20260502150150 11 0 0.0 0.0 0.00 0.00 0.00 50 1016.3
20260502130625 5 0 0.0 0.0 0.00 0.00 0.00 70 1016.8
20260502130122 5 0 0.0 0.0 0.00 0.00 0.00 70 1016.9
20260502123113 2 0 0.0 0.0 0.00 0.00 0.00 79 1017.0
20260502122614 2 0 0.0 0.0 0.00 0.00 0.00 80 1017.0
20260502122112 2 0 0.0 0.0 0.00 0.00 0.00 80 1017.0
20260502121610 1 0 0.0 0.0 0.00 0.00 0.00 79 1016.9
20260502121107 1 0 0.0 0.0 0.00 0.00 0.00 80 1016.9
20260502120605 0 0 0.0 0.0 0.00 0.00 0.00 82 1016.8
20260502120347 0 0 0.0 0.0 0.00 0.00 0.00 83 1017.0
20260502115604 0 0 0.0 0.0 0.00 0.00 0.00 82 1016.9
20260502115102 0 0 0.0 0.0 0.00 0.00 0.00 81 1016.9
20260502114602 0 0 0.0 0.0 0.00 0.00 0.00 80 1016.8
20260502114350 0 0 0.0 0.0 0.00 0.00 0.00 80 1016.8
20260502113847 0 0 0.0 0.0 0.00 0.00 0.00 81 1016.8
20260502113102 0 0 0.0 0.0 0.00 0.00 0.00 81 1016.7
20260502112848 0 0 0.0 0.0 0.00 0.00 0.00 83 1016.7
20260502112057 0 0 0.0 0.0 0.00 0.00 0.00 84 1016.8
20260502111557 -1 0 0.0 0.0 0.00 0.00 0.00 85 1016.8
20260502111058 -1 0 0.0 0.0 0.00 0.00 0.00 86 1016.9
20260502110557 -1 0 0.0 0.0 0.00 0.00 0.00 87 1016.9
20260502110057 -1 0 0.0 0.0 0.00 0.00 0.00 87 1017.0
20260502105844 -1 0 0.0 0.0 0.00 0.00 0.00 88 1016.9
20260502105058 -1 0 0.0 0.0 0.00 0.00 0.00 88 1016.7
20260502104558 -1 0 0.0 0.0 0.00 0.00 0.00 88 1016.7
20260502104059 -1 0 0.0 0.0 0.00 0.00 0.00 88 1016.8
20260502103558 -1 0 0.0 0.0 0.00 0.00 0.00 87 1016.8
20260502103059 -1 0 0.0 0.0 0.00 0.00 0.00 86 1016.8
20260502102844 -1 0 0.0 0.0 0.00 0.00 0.00 86 1016.8
20260502102058 -1 0 0.0 0.0 0.00 0.00 0.00 85 1016.8
20260502101552 -1 0 0.0 0.0 0.00 0.00 0.00 85 1016.8
20260502101331 -1 0 0.0 0.0 0.00 0.00 0.00 83 1016.8
20260502100546 -1 0 0.0 0.0 0.00 0.00 0.00 84 1016.8
20260502091038 -1 0 0.0 0.0 0.00 0.00 0.00 85 1016.8
20260502090538 -1 0 0.0 0.0 0.00 0.00 0.00 84 1016.8
20260502090323 -1 0 0.0 0.0 0.00 0.00 0.00 84 1016.8
20260502071519 0 0 0.0 0.0 0.00 0.00 0.00 77 1017.1
20260502071019 0 0 0.0 0.0 0.00 0.00 0.00 75 1017.1
20260502070520 0 0 0.0 0.0 0.00 0.00 0.00 75 1017.2
20260502070019 0 0 0.0 0.0 0.00 0.00 0.00 75 1017.2
20260502065813 0 0 0.0 0.0 0.00 0.00 0.00 75 1017.3
20260502065016 0 0 0.0 0.0 0.00 0.00 0.00 75 1017.3
20260502064516 0 0 0.0 0.0 0.00 0.00 0.00 74 1017.4
20260502064310 0 0 0.0 0.0 0.00 0.00 0.00 75 1017.4
20260502063513 1 0 0.0 0.0 0.00 0.00 0.00 75 1017.4
20260502063014 1 0 0.0 0.0 0.00 0.00 0.00 75 1017.4
20260502062511 1 0 0.0 0.0 0.00 0.00 0.00 75 1017.3
20260502062009 1 0 0.0 0.0 0.00 0.00 0.00 72 1017.4
20260502061508 2 0 0.0 0.0 0.00 0.00 0.00 71 1017.4
20260502061006 2 0 0.0 0.0 0.00 0.00 0.00 66 1017.3
20260502060504 2 0 0.0 0.0 0.00 0.00 0.00 66 1017.2
20260502060002 2 0 0.0 0.0 0.00 0.00 0.00 67 1017.2
20260502055459 2 0 0.0 0.0 0.00 0.00 0.00 67 1017.2
20260502054954 2 0 0.0 0.0 0.00 0.00 0.00 68 1017.2
20260502054447 2 0 0.0 0.0 0.00 0.00 0.00 68 1017.2
20260502053941 2 0 0.0 0.0 0.00 0.00 0.00 68 1017.2
20260502053436 2 0 0.0 0.0 0.00 0.00 0.00 69 1017.3
20260502052932 2 0 0.0 0.0 0.00 0.00 0.00 67 1017.2
20260502052431 2 0 0.0 0.0 0.00 0.00 0.00 68 1017.3
20260502051930 2 0 0.0 0.0 0.00 0.00 0.00 70 1017.3
20260502051431 2 0 0.0 0.0 0.00 0.00 0.00 72 1017.3
20260502050930 2 0 0.0 0.0 0.00 0.00 0.00 74 1017.4
20260502050430 2 0 0.0 0.0 0.00 0.00 0.00 72 1017.4
20260502045931 2 0 0.0 0.0 0.00 0.00 0.00 71 1017.3
20260502045429 2 0 0.0 0.0 0.00 0.00 0.00 74 1017.4
20260502044931 2 0 0.0 0.0 0.00 0.00 0.00 74 1017.3
20260502044430 2 0 0.0 0.0 0.00 0.00 0.00 72 1017.3
20260502043928 2 0 0.0 0.0 0.00 0.00 0.00 71 1017.4
20260502043717 2 0 0.0 0.0 0.00 0.00 0.00 71 1017.4
20260502042920 2 0 0.0 0.0 0.00 0.00 0.00 73 1017.5
20260502042415 2 0 0.0 0.0 0.00 0.00 0.00 72 1017.6
20260502041913 2 0 0.0 0.0 0.00 0.00 0.00 74 1017.4
20260502041411 2 0 0.0 0.0 0.00 0.00 0.00 73 1017.5
20260502040910 2 0 0.0 0.0 0.00 0.00 0.00 71 1017.5
20260502040407 2 0 0.0 0.0 0.00 0.00 0.00 73 1017.6
20260502035907 2 0 0.0 0.0 0.00 0.00 0.00 68 1017.5
20260502035407 2 0 0.0 0.0 0.00 0.00 0.00 68 1017.5
20260502035158 2 0 0.0 0.0 0.00 0.00 0.00 70 1017.5
20260502034403 3 0 0.0 0.0 0.00 0.00 0.00 71 1017.5
20260502033902 3 0 0.0 0.0 0.00 0.00 0.00 70 1017.5
20260502033401 3 0 0.0 0.0 0.00 0.00 0.00 71 1017.4
20260502032902 3 0 0.0 0.0 0.00 0.00 0.00 70 1017.4
20260502032401 3 0 0.0 0.0 0.00 0.00 0.00 71 1017.5
20260502031901 3 0 0.0 0.0 0.00 0.00 0.00 72 1017.4
20260502031402 3 0 0.0 0.0 0.00 0.00 0.00 70 1017.6
20260502030901 3 0 0.0 0.0 0.00 0.00 0.00 67 1017.4
20260502030401 4 0 0.0 0.0 0.00 0.00 0.00 67 1017.3
20260502025901 5 0 0.0 0.0 0.00 0.00 0.00 65 1017.4
20260502025653 5 0 0.0 0.0 0.00 0.00 0.00 59 1017.3
20260502024901 5 0 0.0 0.0 0.00 0.00 0.00 60 1017.3
20260502024651 5 0 0.0 0.0 0.00 0.00 0.00 60 1017.3
20260502023901 5 0 0.0 0.0 0.00 0.00 0.00 59 1017.4
20260502023402 5 0 0.0 0.0 0.00 0.00 0.00 58 1017.3
20260502022902 5 0 0.0 0.0 0.00 0.00 0.00 58 1017.3
20260502022653 5 0 0.0 0.0 0.00 0.00 0.00 59 1017.2
20260502022148 5 0 0.0 0.0 0.00 0.00 0.00 57 1017.2
20260502021401 5 0 0.0 0.0 0.00 0.00 0.00 52 1017.1
20260502020901 6 0 0.0 0.0 0.00 0.00 0.00 56 1017.0
20260502020654 6 0 0.0 0.0 0.00 0.00 0.00 63 1017.1
20260502015903 6 0 0.0 0.0 0.00 0.00 0.00 61 1017.0
20260502015430 7 0 0.0 0.0 0.00 0.00 0.00 54 1017.0
20260502014653 7 0 0.0 0.0 0.00 0.00 0.00 52 1017.0
20260502013901 8 0 0.0 0.0 0.00 0.00 0.00 48 1016.9
20260502013402 8 0 0.0 0.0 0.00 0.00 0.00 51 1016.9
20260502012908 8 0 0.0 0.0 0.00 0.00 0.00 46 1016.8
20260502012402 9 0 0.0 0.0 0.00 0.00 0.00 40 1016.8
20260502011902 10 0 0.0 0.0 0.00 0.00 0.00 40 1016.8
20260502011359 10 0 0.0 0.0 0.00 0.00 0.00 37 1016.8
20260502010856 10 0 0.0 0.0 0.00 0.00 0.00 36 1016.7
20260502010357 10 0 0.0 0.0 0.00 0.00 0.00 35 1016.7
20260502005857 10 0 0.0 0.0 0.00 0.00 0.00 36 1016.7
20260502005357 10 0 0.0 0.0 0.00 0.00 0.00 36 1016.7
20260502004857 11 0 0.0 0.0 0.00 0.00 0.00 34 1016.6
20260502004356 11 0 0.0 0.0 0.00 0.00 0.00 35 1016.7
20260502003857 11 0 0.0 0.0 0.00 0.00 0.00 33 1016.6
20260502003357 11 0 0.0 0.0 0.00 0.00 0.00 34 1016.6
20260502002859 11 0 0.0 0.0 0.00 0.00 0.00 34 1016.6
20260502002640 11 0 0.0 0.0 0.00 0.00 0.00 34 1016.7
20260502001856 11 0 0.0 0.0 0.00 0.00 0.00 34 1016.6
20260502001357 11 0 0.0 0.0 0.00 0.00 0.00 34 1016.6
20260502000857 11 0 0.0 0.0 0.00 0.00 0.00 34 1016.7
20260502000644 11 0 0.0 0.0 0.00 0.00 0.00 33 1016.6
20260501235858 11 0 0.0 0.0 0.00 0.00 0.00 34 1016.6
20260501235358 11 0 0.0 0.0 0.00 0.00 0.00 33 1016.6
20260501235137 11 0 0.0 0.0 0.00 0.00 0.00 33 1016.6
20260501234649 11 0 0.0 0.0 0.00 0.00 0.00 33 1016.6
20260501233853 11 0 0.0 0.0 0.00 0.00 0.00 33 1016.7
20260501233352 11 0 0.0 0.0 0.00 0.00 0.00 36 1016.6
20260501232850 11 0 0.0 0.0 0.00 0.00 0.00 34 1016.7
20260501232345 11 0 0.0 0.0 0.00 0.00 0.00 35 1016.7
20260501231845 11 0 0.0 0.0 0.00 0.00 0.00 33 1016.6
20260501231339 11 0 0.0 0.0 0.00 0.00 0.00 36 1016.7
20260501230835 11 0 0.0 0.0 0.00 0.00 0.00 36 1016.7
20260501230334 11 0 0.0 0.0 0.00 0.00 0.00 35 1016.7
20260501225834 11 0 0.0 0.0 0.00 0.00 0.00 34 1016.7
20260501225331 11 0 0.0 0.0 0.00 0.00 0.00 35 1016.7
20260501225125 11 0 0.0 0.0 0.00 0.00 0.00 35 1016.7
20260501224332 11 0 0.0 0.0 0.00 0.00 0.00 32 1016.7
20260501223829 11 0 0.0 0.0 0.00 0.00 0.00 35 1016.7
20260501223330 11 0 0.0 0.0 0.00 0.00 0.00 35 1016.7
20260501222830 11 0 0.0 0.0 0.00 0.00 0.00 37 1016.7
20260501222330 11 0 0.0 0.0 0.00 0.00 0.00 38 1016.7
20260501221829 11 0 0.0 0.0 0.00 0.00 0.00 37 1016.8
20260501221330 11 0 0.0 0.0 0.00 0.00 0.00 35 1016.7
20260501220830 11 0 0.0 0.0 0.00 0.00 0.00 36 1016.8
20260501220340 11 0 0.0 0.0 0.00 0.00 0.00 37 1016.8
20260501215325 11 0 0.0 0.0 0.00 0.00 0.00 38 1016.9
20260501214822 11 0 0.0 0.0 0.00 0.00 0.00 38 1016.9
20260501214321 11 0 0.0 0.0 0.00 0.00 0.00 33 1016.9
20260501213817 11 0 0.0 0.0 0.00 0.00 0.00 34 1017.0
20260501213606 10 0 0.0 0.0 0.00 0.00 0.00 37 1016.9
20260501212815 10 0 0.0 0.0 0.00 0.00 0.00 37 1016.9
20260501212314 10 0 0.0 0.0 0.00 0.00 0.00 38 1017.0
20260501211816 10 0 0.0 0.0 0.00 0.00 0.00 35 1017.1
20260501211559 10 0 0.0 0.0 0.00 0.00 0.00 36 1017.0
20260501210810 10 0 0.0 0.0 0.00 0.00 0.00 36 1017.0
20260501210310 10 0 0.0 0.0 0.00 0.00 0.00 36 1017.1
20260501205807 11 0 0.0 0.0 0.00 0.00 0.00 37 1017.1
20260501205553 11 0 0.0 0.0 0.00 0.00 0.00 37 1017.1
20260501204805 11 0 0.0 0.0 0.00 0.00 0.00 43 1017.1
20260501204304 10 0 0.0 0.0 0.00 0.00 0.00 39 1017.2
20260501203803 10 0 0.0 0.0 0.00 0.00 0.00 37 1017.1
20260501203302 10 0 0.0 0.0 0.00 0.00 0.00 37 1017.2
20260501202802 11 0 0.0 0.0 0.00 0.00 0.00 36 1017.2
20260501202306 11 0 0.0 0.0 0.00 0.00 0.00 43 1017.3
20260501201801 11 0 0.0 0.0 0.00 0.00 0.00 39 1017.3
20260501201302 10 0 0.0 0.0 0.00 0.00 0.00 43 1017.3
20260501200803 11 0 0.0 0.0 0.00 0.00 0.00 38 1017.3
20260501200551 11 0 0.0 0.0 0.00 0.00 0.00 37 1017.3
20260501195801 11 0 0.0 0.0 0.00 0.00 0.00 37 1017.3
20260501195305 10 0 0.0 0.0 0.00 0.00 0.00 39 1017.3
20260501194801 10 0 0.0 0.0 0.00 0.00 0.00 38 1017.4